Time,TemperatureF,DewpointF,PressureIn,WindDirection,WindDirectionDegrees,WindSpeedMPH,WindSpeedGustMPH,Humidity,HourlyPrecipIn,Conditions,Clouds,dailyrainin,SolarRadiationWatts/m^2,SoftwareType,DateUTC
2013-04-02 00:22:00,41.0,41.0,-100.00,ESE,105,0.0,5.0,99,0.00,,,0.01,0.000000,,2013-04-02 07:22:00,
2013-04-02 00:32:00,41.0,41.0,-100.00,ESE,105,0.0,5.0,99,0.00,,,0.01,0.000000,,2013-04-02 07:32:00,
2013-04-02 00:42:00,41.0,41.0,-100.00,ESE,105,0.0,5.0,99,0.00,,,0.01,0.000000,,2013-04-02 07:42:00,
2013-04-02 00:52:00,41.0,41.0,-100.00,ESE,105,0.0,5.0,99,0.00,,,0.01,0.000000,,2013-04-02 07:52:00,
2013-04-02 01:22:00,41.0,41.0,-100.00,ESE,115,0.0,4.0,99,0.00,,,0.01,0.000000,,2013-04-02 08:22:00,
2013-04-02 01:32:00,41.0,41.0,-100.00,ESE,115,0.0,4.0,99,0.00,,,0.01,0.000000,,2013-04-02 08:32:00,
2013-04-02 01:42:00,41.0,41.0,-100.00,ESE,115,0.0,4.0,99,0.00,,,0.01,0.000000,,2013-04-02 08:42:00,
2013-04-02 01:52:00,41.0,41.0,-100.00,ESE,115,0.0,4.0,99,0.00,,,0.01,0.000000,,2013-04-02 08:52:00,
2013-04-02 02:22:00,42.0,42.0,-100.00,SE,145,2.0,7.0,99,0.00,,,0.01,0.000000,,2013-04-02 09:22:00,
2013-04-02 02:32:00,42.0,42.0,-100.00,SE,145,2.0,7.0,99,0.00,,,0.01,0.000000,,2013-04-02 09:32:00,
2013-04-02 02:42:00,42.0,42.0,-100.00,SE,145,2.0,7.0,99,0.00,,,0.01,0.000000,,2013-04-02 09:42:00,
2013-04-02 02:52:00,42.0,42.0,-100.00,SE,145,2.0,7.0,99,0.00,,,0.01,0.000000,,2013-04-02 09:52:00,
2013-04-02 03:23:00,42.0,42.0,-100.00,SE,126,2.0,5.0,99,0.00,,,0.01,0.000000,,2013-04-02 10:23:00,
2013-04-02 03:33:00,42.0,42.0,-100.00,SE,126,2.0,5.0,99,0.00,,,0.01,0.000000,,2013-04-02 10:33:00,
2013-04-02 03:42:00,42.0,42.0,-100.00,SE,126,2.0,5.0,99,0.00,,,0.01,0.000000,,2013-04-02 10:42:00,
2013-04-02 03:52:00,42.0,42.0,-100.00,SE,126,2.0,5.0,99,0.00,,,0.01,0.000000,,2013-04-02 10:52:00,
2013-04-02 04:22:00,41.0,41.0,-100.00,SE,129,2.0,5.0,99,0.00,,,0.00,0.000000,,2013-04-02 11:22:00,
2013-04-02 04:32:00,41.0,41.0,-100.00,SE,129,2.0,5.0,99,0.00,,,0.00,0.000000,,2013-04-02 11:32:00,
2013-04-02 04:42:00,41.0,41.0,-100.00,SE,129,2.0,5.0,99,0.00,,,0.00,0.000000,,2013-04-02 11:42:00,
2013-04-02 04:52:00,41.0,41.0,-100.00,SE,129,2.0,5.0,99,0.00,,,0.00,0.000000,,2013-04-02 11:52:00,
2013-04-02 05:22:00,41.0,41.0,-100.00,SE,127,2.0,6.0,99,0.00,,,0.00,0.000000,,2013-04-02 12:22:00,
2013-04-02 05:32:00,41.0,41.0,-100.00,SE,127,2.0,6.0,99,0.00,,,0.00,0.000000,,2013-04-02 12:32:00,
2013-04-02 05:42:00,41.0,41.0,-100.00,SE,127,2.0,6.0,99,0.00,,,0.00,0.000000,,2013-04-02 12:42:00,
2013-04-02 05:52:00,41.0,41.0,-100.00,SE,127,2.0,6.0,99,0.00,,,0.00,0.000000,,2013-04-02 12:52:00,
2013-04-02 06:22:00,39.0,39.0,-100.00,ESE,109,0.0,5.0,99,0.00,,,0.00,0.000000,,2013-04-02 13:22:00,
2013-04-02 06:32:00,39.0,39.0,-100.00,ESE,109,0.0,5.0,99,0.00,,,0.00,0.000000,,2013-04-02 13:32:00,
2013-04-02 06:42:00,39.0,39.0,-100.00,ESE,109,0.0,5.0,99,0.00,,,0.00,0.000000,,2013-04-02 13:42:00,
2013-04-02 06:52:00,39.0,39.0,-100.00,ESE,109,0.0,5.0,99,0.00,,,0.00,0.000000,,2013-04-02 13:52:00,
2013-04-02 07:22:00,39.0,39.0,-100.00,ESE,123,0.0,5.0,99,0.00,,,0.00,3.000000,,2013-04-02 14:22:00,
2013-04-02 07:32:00,39.0,39.0,-100.00,ESE,123,0.0,5.0,99,0.00,,,0.00,3.000000,,2013-04-02 14:32:00,
2013-04-02 07:42:00,39.0,39.0,-100.00,ESE,123,0.0,5.0,99,0.00,,,0.00,3.000000,,2013-04-02 14:42:00,
2013-04-02 07:52:00,39.0,39.0,-100.00,ESE,123,0.0,5.0,99,0.00,,,0.00,3.000000,,2013-04-02 14:52:00,
2013-04-02 08:22:00,43.0,42.0,-100.00,SSE,149,4.0,5.0,97,0.00,,,0.00,28.000000,,2013-04-02 15:22:00,
2013-04-02 08:33:00,43.0,42.0,-100.00,SSE,149,4.0,5.0,97,0.00,,,0.00,28.000000,,2013-04-02 15:33:00,
2013-04-02 08:42:00,43.0,42.0,-100.00,SSE,149,4.0,5.0,97,0.00,,,0.00,28.000000,,2013-04-02 15:42:00,
2013-04-02 08:54:00,43.0,42.0,-100.00,SSE,149,4.0,5.0,97,0.00,,,0.00,28.000000,,2013-04-02 15:54:00,
2013-04-02 09:24:00,55.0,44.0,-100.00,SSW,206,0.0,9.0,67,0.00,,,0.00,238.000000,,2013-04-02 16:24:00,
2013-04-02 09:43:00,55.0,44.0,-100.00,SSW,206,0.0,9.0,67,0.00,,,0.00,238.000000,,2013-04-02 16:43:00,
2013-04-02 09:52:00,55.0,44.0,-100.00,SSW,206,0.0,9.0,67,0.00,,,0.00,238.000000,,2013-04-02 16:52:00,
2013-04-02 10:24:00,60.0,46.0,-100.00,WSW,255,3.0,7.0,59,-99.99,,,-99.99,618.000000,,2013-04-02 17:24:00,
2013-04-02 10:34:00,60.0,46.0,-100.00,WSW,255,3.0,7.0,59,-99.99,,,-99.99,618.000000,,2013-04-02 17:34:00,
2013-04-02 10:43:00,60.0,46.0,-100.00,WSW,255,3.0,7.0,59,-99.99,,,-99.99,618.000000,,2013-04-02 17:43:00,
2013-04-02 10:53:00,60.0,46.0,-100.00,WSW,255,3.0,7.0,59,-99.99,,,-99.99,618.000000,,2013-04-02 17:53:00,
2013-04-02 11:23:00,61.0,47.0,-100.00,West,275,4.0,10.0,61,0.00,,,0.00,786.000000,,2013-04-02 18:23:00,
2013-04-02 11:33:00,61.0,47.0,-100.00,West,275,4.0,10.0,61,0.00,,,0.00,786.000000,,2013-04-02 18:33:00,
2013-04-02 11:42:00,61.0,47.0,-100.00,West,275,4.0,10.0,61,0.00,,,0.00,786.000000,,2013-04-02 18:42:00,
2013-04-02 11:53:00,61.0,47.0,-100.00,West,275,4.0,10.0,61,0.00,,,0.00,786.000000,,2013-04-02 18:53:00,
2013-04-02 12:22:00,59.0,51.0,-100.00,WSW,253,3.0,11.0,74,0.00,,,0.00,693.000000,,2013-04-02 19:22:00,
2013-04-02 12:33:00,59.0,51.0,-100.00,WSW,253,3.0,11.0,74,0.00,,,0.00,693.000000,,2013-04-02 19:33:00,
2013-04-02 12:44:00,59.0,51.0,-100.00,WSW,253,3.0,11.0,74,0.00,,,0.00,693.000000,,2013-04-02 19:44:00,
2013-04-02 12:52:00,59.0,51.0,-100.00,WSW,253,3.0,11.0,74,0.00,,,0.00,693.000000,,2013-04-02 19:52:00,
2013-04-02 13:22:00,61.0,50.0,-100.00,West,280,3.0,8.0,66,0.00,,,0.00,818.000000,,2013-04-02 20:22:00,
2013-04-02 13:33:00,61.0,50.0,-100.00,West,280,3.0,8.0,66,0.00,,,0.00,818.000000,,2013-04-02 20:33:00,
2013-04-02 13:43:00,61.0,50.0,-100.00,West,280,3.0,8.0,66,0.00,,,0.00,818.000000,,2013-04-02 20:43:00,
2013-04-02 13:52:00,61.0,50.0,-100.00,West,280,3.0,8.0,66,0.00,,,0.00,818.000000,,2013-04-02 20:52:00,
2013-04-02 14:23:00,56.0,48.0,-100.00,WNW,291,3.0,10.0,74,0.00,,,0.00,411.000000,,2013-04-02 21:23:00,
2013-04-02 14:34:00,56.0,48.0,-100.00,WNW,291,3.0,10.0,74,0.00,,,0.00,411.000000,,2013-04-02 21:34:00,
2013-04-02 14:43:00,56.0,48.0,-100.00,WNW,291,3.0,10.0,74,0.00,,,0.00,411.000000,,2013-04-02 21:43:00,
2013-04-02 14:54:00,56.0,48.0,-100.00,WNW,291,3.0,10.0,74,0.00,,,0.00,411.000000,,2013-04-02 21:54:00,
2013-04-02 15:23:00,55.0,51.0,-100.00,West,271,1.0,9.0,86,0.00,,,0.00,122.000000,,2013-04-02 22:23:00,
2013-04-02 15:33:00,55.0,51.0,-100.00,West,271,1.0,9.0,86,0.00,,,0.00,122.000000,,2013-04-02 22:33:00,
2013-04-02 15:43:00,55.0,51.0,-100.00,West,271,1.0,9.0,86,0.00,,,0.00,122.000000,,2013-04-02 22:43:00,
2013-04-02 15:53:00,55.0,51.0,-100.00,West,271,1.0,9.0,86,0.00,,,0.00,122.000000,,2013-04-02 22:53:00,
2013-04-02 16:23:00,54.0,48.0,-100.00,SW,228,1.0,6.0,80,0.00,,,0.00,135.000000,,2013-04-02 23:23:00,
2013-04-02 16:42:00,54.0,48.0,-100.00,SW,228,1.0,6.0,80,0.00,,,0.00,135.000000,,2013-04-02 23:42:00,
2013-04-02 16:52:00,54.0,48.0,-100.00,SW,228,1.0,6.0,80,0.00,,,0.00,135.000000,,2013-04-02 23:52:00,
2013-04-02 17:23:00,59.0,48.0,-100.00,South,172,1.0,5.0,68,0.00,,,0.00,312.000000,,2013-04-03 00:23:00,
2013-04-02 17:32:00,59.0,48.0,-100.00,South,172,1.0,5.0,68,0.00,,,0.00,312.000000,,2013-04-03 00:32:00,
2013-04-02 17:44:00,59.0,48.0,-100.00,South,172,1.0,5.0,68,0.00,,,0.00,312.000000,,2013-04-03 00:44:00,
2013-04-02 17:53:00,59.0,48.0,-100.00,South,172,1.0,5.0,68,0.00,,,0.00,312.000000,,2013-04-03 00:53:00,
2013-04-02 18:22:00,63.0,49.0,-100.00,WNW,295,0.0,4.0,60,0.00,,,0.00,395.000000,,2013-04-03 01:22:00,
2013-04-02 18:33:00,63.0,49.0,-100.00,WNW,295,0.0,4.0,60,0.00,,,0.00,395.000000,,2013-04-03 01:33:00,
2013-04-02 18:42:00,63.0,49.0,-100.00,WNW,295,0.0,4.0,60,0.00,,,0.00,395.000000,,2013-04-03 01:42:00,
2013-04-02 18:52:00,63.0,49.0,-100.00,WNW,295,0.0,4.0,60,0.00,,,0.00,395.000000,,2013-04-03 01:52:00,
2013-04-02 19:23:00,56.0,47.0,-100.00,WNW,285,0.0,6.0,72,-99.99,,,0.00,116.000000,,2013-04-03 02:23:00,
2013-04-02 19:33:00,56.0,47.0,-100.00,WNW,285,0.0,6.0,72,-99.99,,,0.00,116.000000,,2013-04-03 02:33:00,
2013-04-02 19:43:00,56.0,47.0,-100.00,WNW,285,0.0,6.0,72,-99.99,,,0.00,116.000000,,2013-04-03 02:43:00,
2013-04-02 19:52:00,56.0,47.0,-100.00,WNW,285,0.0,6.0,72,-99.99,,,0.00,116.000000,,2013-04-03 02:52:00,
2013-04-02 20:22:00,48.0,47.0,-100.00,ESE,113,0.0,3.0,98,0.00,,,0.00,4.000000,,2013-04-03 03:22:00,
2013-04-02 20:35:00,48.0,47.0,-100.00,ESE,113,0.0,3.0,98,0.00,,,0.00,4.000000,,2013-04-03 03:35:00,
2013-04-02 20:43:00,48.0,47.0,-100.00,ESE,113,0.0,3.0,98,0.00,,,0.00,4.000000,,2013-04-03 03:43:00,
2013-04-02 20:53:00,48.0,47.0,-100.00,ESE,113,0.0,3.0,98,0.00,,,0.00,4.000000,,2013-04-03 03:53:00,
2013-04-02 21:23:00,50.0,43.0,-100.00,ESE,119,1.0,7.0,78,0.00,,,0.00,0.000000,,2013-04-03 04:23:00,
2013-04-02 21:32:00,50.0,43.0,-100.00,ESE,119,1.0,7.0,78,0.00,,,0.00,0.000000,,2013-04-03 04:32:00,
2013-04-02 21:53:00,50.0,43.0,-100.00,ESE,119,1.0,7.0,78,0.00,,,0.00,0.000000,,2013-04-03 04:53:00,
2013-04-02 22:22:00,48.0,41.0,-100.00,SE,139,2.0,7.0,78,0.00,,,0.00,0.000000,,2013-04-03 05:22:00,
2013-04-02 22:32:00,48.0,41.0,-100.00,SE,139,2.0,7.0,78,0.00,,,0.00,0.000000,,2013-04-03 05:32:00,
2013-04-02 22:42:00,48.0,41.0,-100.00,SE,139,2.0,7.0,78,0.00,,,0.00,0.000000,,2013-04-03 05:42:00,
2013-04-02 22:52:00,48.0,41.0,-100.00,SE,139,2.0,7.0,78,0.00,,,0.00,0.000000,,2013-04-03 05:52:00,
2013-04-02 23:22:00,47.0,43.0,-100.00,ESE,118,1.0,9.0,86,0.00,,,0.00,0.000000,,2013-04-03 06:22:00,
2013-04-02 23:32:00,47.0,43.0,-100.00,ESE,118,1.0,9.0,86,0.00,,,0.00,0.000000,,2013-04-03 06:32:00,
2013-04-02 23:42:00,47.0,43.0,-100.00,ESE,118,1.0,9.0,86,0.00,,,0.00,0.000000,,2013-04-03 06:42:00,
2013-04-02 23:52:00,47.0,43.0,-100.00,ESE,118,1.0,9.0,86,0.00,,,0.00,0.000000,,2013-04-03 06:52:00,